Flag for Czech Republic Weather past 2 weeks in Prague, Czech Republic

Now
68 °F

Light rain. Passing clouds.


Feels Like: 68 °F
Forecast: 60 / 74 °F
Wind: 6 mph from Northwest

Location: Prague Ruzyne Airport

Current Time: Jul 30, 2014 at 8:49:40 PM

Latest Report: Jul 30, 2014 at 8:00 PM


Visibility: 4 mi

Pressure: 29.80 "Hg

Humidity: 88%

Dew point: 64 °F

Location of PragueLocation

Historic Weather in Prague — Graph

°F

Prague temperature yesterday

Maximum temperature yesterday: 75 °F (at 1:30 PM)
Minimum temperature yesterday: 59 °F (at 2:30 AM)
Average temperature yesterday: 68 °F

Past Weeks' High & Low Weather Summary

 TemperatureHumidityPressure
High90 °F (Jul 20, 4:30 PM)100% (Jul 22, 12:30 AM)30.18 "Hg (Jul 22, 12:30 AM)
Low54 °F (Jul 25, 5:00 AM)31% (Jul 20, 4:30 PM)29.71 "Hg (Jul 30, 1:30 AM)
Average70 °F71%29.95 "Hg
* Reported Jul 15 8:00 PM — Jul 30 8:00 PM, Prague, Weather by CustomWeather, © 2014

Note: Actual official high and low records may vary slightly from our data, if they occured in-between our weather recording intervals... More about our weather records

Advertising

Prague weather history for previous 24 hours

 ConditionsComfort  
Time TempWeatherWind HumidityBarometerVisibility
8:00 PM
Jul 30
68 °FLight rain. Passing clouds.6 mph88%29.80 "Hg4 mi
7:30 PM68 °FRain showers. Passing clouds.5 mph88%29.77 "Hg4 mi
7:00 PM68 °FThundershowers. Passing clouds.6 mph88%29.80 "Hg2 mi
6:30 PM68 °FThunderstorms. Passing clouds.3 mph94%29.80 "HgN/A
6:00 PM68 °FSprinkles. Scattered clouds.5 mph88%29.77 "HgN/A
5:30 PM70 °FThunderstorms. Scattered clouds.7 mph88%29.77 "HgN/A
5:00 PM72 °FThunderstorms. Passing clouds.12 mph83%29.77 "HgN/A
4:30 PM75 °FPassing clouds.10 mph69%29.77 "HgN/A
4:00 PM77 °FPassing clouds.7 mph65%29.77 "HgN/A
3:30 PM77 °FPassing clouds.5 mph69%29.74 "HgN/A
3:00 PM75 °FPassing clouds.7 mph74%29.77 "HgN/A
2:30 PM75 °FPassing clouds.5 mph69%29.77 "HgN/A
2:00 PM75 °FPassing clouds.5 mph69%29.77 "HgN/A
1:30 PM73 °FScattered clouds.6 mph74%29.77 "HgN/A
1:00 PM73 °FSprinkles. Scattered clouds.5 mph78%29.77 "HgN/A
12:30 PM72 °FBroken clouds.2 mph83%29.77 "HgN/A
12:00 PM72 °FSprinkles. Broken clouds.6 mph83%29.77 "HgN/A
11:30 AM72 °FScattered clouds.7 mph83%29.77 "HgN/A
11:00 AM72 °FBroken clouds.6 mph83%29.77 "HgN/A
10:30 AM72 °FBroken clouds.2 mph83%29.77 "HgN/A
10:00 AM70 °FBroken clouds.2 mph88%29.74 "HgN/A
9:30 AM68 °FPartly sunny.2 mph94%29.74 "Hg5 mi
9:00 AM68 °FPartly sunny.3 mph94%29.74 "Hg4 mi
8:30 AM66 °FPartly sunny.3 mph100%29.74 "Hg4 mi
8:03 AM66 °FMild.5 mph94%29.74 "Hg1 mi
8:00 AM64 °FMild.3 mph100%29.74 "Hg1 mi
7:30 AM64 °FFog.2 mph94%29.74 "Hg0 mi
7:00 AM63 °FFog.1 mph100%29.74 "Hg0 mi
6:30 AM61 °FFog.2 mph100%29.74 "Hg1 mi
6:00 AM61 °FFog.2 mph94%29.74 "Hg3 mi
5:30 AM63 °FFog.1 mph100%29.74 "Hg3 mi
5:00 AM61 °FClear.3 mph100%29.74 "Hg4 mi
4:30 AM61 °FClear.6 mph94%29.71 "Hg4 mi
4:00 AM61 °FPassing clouds.5 mph94%29.71 "Hg4 mi
3:30 AM61 °FPassing clouds.No wind100%29.74 "Hg5 mi
3:00 AM61 °FFog.2 mph100%29.74 "Hg5 mi
2:30 AM63 °FPassing clouds.1 mph100%29.71 "Hg6 mi
2:00 AM63 °FClear.2 mph100%29.71 "Hg10 mi
1:30 AM63 °FClear.3 mph100%29.71 "Hg10 mi
1:00 AM64 °FClear.2 mph94%29.74 "Hg10 mi
12:30 AM63 °FClear.2 mph94%29.74 "Hg10 mi
12:00 AM64 °FClear.1 mph88%29.74 "Hg10 mi
11:30 PM
Jul 29
66 °FClear.5 mph88%29.74 "Hg10 mi
11:00 PM66 °FClear.3 mph94%29.74 "Hg10 mi
10:30 PM68 °FPassing clouds.2 mph88%29.74 "HgN/A
10:00 PM70 °FPassing clouds.2 mph83%29.74 "HgN/A
9:30 PM70 °FPassing clouds.3 mph78%29.74 "HgN/A
9:00 PM70 °FSunny.5 mph83%29.74 "Hg10 mi
8:30 PM70 °FSunny.5 mph83%29.74 "Hg10 mi
8:00 PM70 °FPassing clouds.2 mph78%29.74 "HgN/A
Weather by CustomWeather, © 2014

See weather overviewHow to use our weather pages